Retour au catalogue

STARLINK-30925

ActifCommunicationsVLEO
NORAD 58406·PAYLOAD·🇺🇸 United States

Lancé Nov 22, 2023 depuis Cape Canaveral Space Force Station

Loading…

Prochains Passages (prochaines 24 heures)

TLE

FraisSource: CelesTrak SupGP

Époque: Sep 14, 2026, 21:36 UTC

1 58406C 23180E   26257.90048611  .00048320  00000+0  17502-2 0  2578
2 58406  43.0039  64.1358 0001378 275.3604  13.1434 15.27553896    15

Suivez STARLINK-30925 en temps réel avec AllMySat

Download on the App Store